Regional Weather Roundup
Issued by NWS

Current Version | Previous Version | Text Only | Print | Product List | Glossary On
Versions: 1 2 3 4 5 6 7 8 9 10 11 12 13 14 15 16 17 18 19 20 21 22 23 24 25 26 27 28 29 30 31 32 33 34 35 36 37 38 39 40 41 42 43 44 45 46 47 48 49 50
000
ASUS44 KLIX 140810
RWRLA
LOUISIANA WEATHER ROUNDUP
NATIONAL WEATHER SERVICE NEW ORLEANS LA
200 AM CST SUN FEB 14 2016

NOTE: "FAIR" INDICATES FEW OR NO CLOUDS BELOW 12,000 FEET WITH NO
      SIGNIFICANT WEATHER AND/OR OBSTRUCTIONS TO VISIBILITY.
      SKY/WX - SKY CONDITION AND SIGNIFICANT WEATHER.
      TMP - AIR TEMPERATURE.    DP   - DEWPOINT TEMPERATURE.
      RH  - RELATIVE HUMIDITY.  PRES - PRESSURE.
      HX  - HEAT INDEX.         WCI  - WIND CHILL INDEX.

*  THESE STATIONS ARE NOT NWS OR FAA STATIONS AND ARE NOT UNDER
   NWS QUALITY CONTROL.

LAZ040-048-061>063-065-066-069-140900-
SOUTHEAST LOUISIANA

CITY           SKY/WX    TMP DP  RH WIND       PRES   REMARKS
N.O. AUDUBON   NOT AVBL
N.O. INTL ARPT PTCLDY    48  38  68 E5        30.26F
N.O. LAKEFRONT PTCLDY    50  45  83 E9        30.27F
N.O. DOWNTOWN* NOT AVBL
RESERVE*       FAIR      47  41  78 E3        30.25F
SLIDELL        PTCLDY    39  31  72 NE3       30.27F
BATON ROUGE    PTCLDY    45  36  70 E5        30.25F
BOOTHVILLE     PTCLDY    51  43  74 NE8       30.25F
BELLE CHASSE   NOT AVBL
BOGALUSA*        N/A     36  31  82 CALM      30.29F
GALLIANO*      SUNNY     50  43  78 CALM      30.25F
NEW ROADS*     FAIR      46  37  72 E5        30.25S
GONZALES*      FAIR      44  40  86 CALM      30.24F
HAMMOND*       PTCLDY    45  25  45 E8        30.26F
HOUMA*         PTCLDY    43  40  91 E3        30.25S
PORT FOURCHON* MOSUNNY   57  43  58 E10G16    30.24F

$$

LAZ041-044-053-054-140900-
SOUTHWEST LOUISIANA

CITY           SKY/WX    TMP DP  RH WIND       PRES   REMARKS
LAKE CHARLES   PTCLDY    52  49  89 SE6       30.19F
LAFAYETTE      CLEAR     50  45  83 CALM      30.23F
PATTERSON      CLEAR     48  43  81 CALM      30.25S
SALT POINT       N/A     50  47  89 E5        30.23F
NEW IBERIA     CLEAR     47  44  90 SE6       30.24F
CHENAULT AIRPK MOCLDY    50  48  93 E6        30.20F

$$

LAZ027-028-140900-
CENTRAL LOUISIANA

CITY           SKY/WX    TMP DP  RH WIND       PRES   REMARKS
FORT POLK      PTCLDY    46  32  58 SE6       30.19F
ALEXANDRIA INT CLOUDY    44  31  60 SE9       30.19F
ALEXANDRIA     PTCLDY    45  28  51 CALM      30.21F

$$

LAZ001-002-140900-
NORTHWEST LOUISIANA

CITY           SKY/WX    TMP DP  RH WIND       PRES   REMARKS
SHREVEPORT     CLOUDY    45  23  42 SE7       30.17F
BARKSDALE AFB  CLOUDY    43  21  42 SE8       30.17F
DTN SHREVEPORT CLOUDY    44  21  40 SE8       30.18F

$$

LAZ014-016-140900-
NORTHEAST LOUISIANA

CITY           SKY/WX    TMP DP  RH WIND       PRES   REMARKS
MONROE         CLOUDY    40  25  55 CALM      30.23F
TALLULAH       CLOUDY    44  22  41 SE7       30.24F

$$




USA.gov is the U.S. government's official web portal to all federal, state and local government web resources and services.